TimeEDT,TemperatureF,Dew PointF,Humidity,Sea Level PressureIn,VisibilityMPH,Wind Direction,Wind SpeedMPH,Gust SpeedMPH,PrecipitationIn,Events,Conditions,WindDirDegrees,DateUTC
12:21 AM,59.0,57.2,94,29.48,4.0,SSE,10.4,18.4,0.08,Rain,Rain,150,2013-04-19 04:21:00
12:31 AM,59.0,57.2,94,29.48,3.0,SSE,10.4,19.6,0.12,Rain,Heavy Rain,160,2013-04-19 04:31:00
12:41 AM,59.0,57.2,94,29.48,2.5,SSE,12.7,24.2,0.16,Rain,Heavy Rain,160,2013-04-19 04:41:00
12:44 AM,59.0,57.2,94,29.48,3.0,SSE,10.4,24.2,0.17,Rain,Heavy Rain,160,2013-04-19 04:44:00
12:53 AM,59.0,57.9,96,29.47,3.0,South,13.8,19.6,0.20,Rain,Rain,170,2013-04-19 04:53:00
1:21 AM,59.0,57.2,94,29.46,2.5,South,15.0,19.6,0.12,Rain,Rain,180,2013-04-19 05:21:00
1:31 AM,57.2,55.4,94,29.49,3.0,West,19.6,26.5,0.15,Rain,Heavy Rain,260,2013-04-19 05:31:00
1:39 AM,51.8,48.2,88,29.47,4.0,West,15.0,-,0.17,Rain,Rain,270,2013-04-19 05:39:00
1:46 AM,51.8,48.2,88,29.47,5.0,West,11.5,23.0,0.18,Rain,Rain,270,2013-04-19 05:46:00
1:53 AM,50.0,48.0,93,29.47,6.0,West,11.5,-,0.19,Rain,Rain,260,2013-04-19 05:53:00
2:04 AM,50.0,48.2,94,29.48,7.0,West,13.8,23.0,0.01,Rain,Light Rain,260,2013-04-19 06:04:00
2:23 AM,48.2,46.4,93,29.47,6.0,West,12.7,-,0.03,Rain,Rain,260,2013-04-19 06:23:00
2:49 AM,46.4,42.8,87,29.49,8.0,West,12.7,32.2,0.08,Rain,Light Rain,270,2013-04-19 06:49:00
2:53 AM,46.0,43.0,89,29.49,10.0,West,11.5,-,0.08,Rain,Light Rain,270,2013-04-19 06:53:00
3:14 AM,44.6,42.8,93,29.47,4.0,West,15.0,-,0.03,Rain,Rain,270,2013-04-19 07:14:00
3:53 AM,44.1,41.0,89,29.46,7.0,West,15.0,20.7,0.07,Rain,Light Rain,260,2013-04-19 07:53:00
4:10 AM,42.8,39.2,87,29.48,10.0,WSW,17.3,25.3,0.01,Rain,Light Rain,250,2013-04-19 08:10:00
4:19 AM,42.8,39.2,87,29.47,7.0,West,15.0,23.0,0.01,Rain,Light Rain,260,2013-04-19 08:19:00
4:42 AM,41.0,37.4,87,29.45,10.0,West,10.4,-,0.01,,Overcast,260,2013-04-19 08:42:00
4:53 AM,41.0,37.0,86,29.47,10.0,West,12.7,-,0.01,,Overcast,260,2013-04-19 08:53:00
5:53 AM,39.0,33.1,79,29.48,10.0,West,17.3,26.5,0.00,,Overcast,260,2013-04-19 09:53:00
6:53 AM,37.9,32.0,79,29.49,10.0,WSW,15.0,27.6,N/A,,Overcast,250,2013-04-19 10:53:00
7:53 AM,37.0,28.9,73,29.50,10.0,West,20.7,31.1,N/A,,Overcast,260,2013-04-19 11:53:00
8:53 AM,37.9,30.0,73,29.51,10.0,WSW,16.1,25.3,N/A,,Overcast,240,2013-04-19 12:53:00
9:53 AM,37.9,28.9,70,29.52,10.0,WSW,16.1,29.9,N/A,,Overcast,250,2013-04-19 13:53:00
10:53 AM,37.9,28.9,70,29.53,10.0,SW,23.0,33.4,0.00,,Overcast,230,2013-04-19 14:53:00
11:53 AM,37.9,28.0,68,29.55,10.0,SW,29.9,38.0,0.00,,Overcast,230,2013-04-19 15:53:00
12:53 PM,37.9,28.9,70,29.56,9.0,SW,18.4,28.8,0.00,Rain,Light Rain,230,2013-04-19 16:53:00
1:53 PM,37.9,30.0,73,29.57,10.0,WSW,18.4,29.9,0.00,,Overcast,240,2013-04-19 17:53:00
2:53 PM,37.9,28.9,70,29.61,7.0,SW,25.3,39.1,0.00,Snow,Light Snow,230,2013-04-19 18:53:00
3:53 PM,39.0,28.0,65,29.63,7.0,WSW,21.9,38.0,0.00,Rain,Light Rain,250,2013-04-19 19:53:00
4:53 PM,37.9,30.0,73,29.65,10.0,SW,19.6,35.7,0.00,,Overcast,230,2013-04-19 20:53:00
5:53 PM,37.9,28.9,70,29.68,9.0,WSW,26.5,36.8,0.00,Rain,Light Rain,240,2013-04-19 21:53:00
6:53 PM,37.9,28.9,70,29.71,10.0,WSW,18.4,28.8,0.00,Rain,Light Rain,250,2013-04-19 22:53:00
7:53 PM,37.0,30.0,76,29.73,5.0,WSW,17.3,29.9,0.00,Snow,Light Snow,250,2013-04-19 23:53:00
8:40 PM,37.4,30.2,75,29.73,6.0,WSW,16.1,23.0,0.00,Snow,Light Snow,240,2013-04-20 00:40:00
8:53 PM,36.0,30.9,82,29.77,4.0,WSW,16.1,23.0,0.00,Snow,Light Snow,250,2013-04-20 00:53:00
9:00 PM,35.6,30.2,81,29.75,2.0,West,11.5,20.7,0.00,Snow,Light Snow,270,2013-04-20 01:00:00
9:14 PM,35.6,32.0,87,29.75,5.0,WSW,11.5,-,0.00,Snow,Light Snow,240,2013-04-20 01:14:00
9:37 PM,35.6,32.0,87,29.76,9.0,WSW,9.2,19.6,0.00,,Overcast,240,2013-04-20 01:37:00
9:44 PM,35.6,32.0,87,29.76,3.0,WSW,10.4,-,0.00,Snow,Light Snow,240,2013-04-20 01:44:00
9:46 PM,35.6,32.0,87,29.76,2.0,SW,11.5,-,0.00,Snow,Light Snow,220,2013-04-20 01:46:00
9:53 PM,34.0,32.0,92,29.79,1.2,WSW,12.7,21.9,0.01,Snow,Light Snow,240,2013-04-20 01:53:00
9:56 PM,33.8,32.0,93,29.77,1.2,WSW,15.0,21.9,0.00,Snow,Light Snow,240,2013-04-20 01:56:00
10:07 PM,33.8,32.0,93,29.77,3.0,WSW,15.0,20.7,0.00,Snow,Light Snow,250,2013-04-20 02:07:00
10:31 PM,33.8,32.0,93,29.78,1.5,West,15.0,-,0.00,Snow,Light Snow,260,2013-04-20 02:31:00
10:35 PM,33.8,32.0,93,29.78,0.8,WSW,13.8,-,0.00,Snow,Light Snow,250,2013-04-20 02:35:00
10:41 PM,33.8,32.0,93,29.78,1.0,WSW,10.4,18.4,0.00,Snow,Light Snow,250,2013-04-20 02:41:00
10:46 PM,33.8,32.0,93,29.78,2.5,WSW,12.7,20.7,0.01,Snow,Light Snow,250,2013-04-20 02:46:00
10:53 PM,34.0,30.9,89,29.81,9.0,WSW,11.5,20.7,0.01,Snow,Light Snow,250,2013-04-20 02:53:00
11:10 PM,33.8,30.2,87,29.78,10.0,WSW,10.4,-,0.00,,Overcast,240,2013-04-20 03:10:00
11:20 PM,33.8,32.0,93,29.79,2.0,WSW,12.7,17.3,0.00,Snow,Light Snow,250,2013-04-20 03:20:00
11:23 PM,33.8,32.0,93,29.79,1.0,WSW,18.4,25.3,0.00,Snow,Light Snow,250,2013-04-20 03:23:00
11:27 PM,33.8,30.2,87,29.79,0.8,West,12.7,25.3,0.00,Snow,Light Snow,260,2013-04-20 03:27:00
11:34 PM,33.8,30.2,87,29.79,0.8,West,11.5,-,0.00,Snow,Light Snow,260,2013-04-20 03:34:00
11:39 PM,33.8,30.2,87,29.79,2.0,West,10.4,-,0.00,Snow,Light Snow,260,2013-04-20 03:39:00
11:46 PM,33.8,30.2,87,29.79,7.0,West,9.2,-,0.00,Snow,Light Snow,260,2013-04-20 03:46:00
11:53 PM,33.1,30.9,92,29.82,9.0,West,10.4,-,0.00,,Overcast,260,2013-04-20 03:53:00